Location: Buckeye Ditch
(40.9104°N, 122.9517°W)
Time: 14:33:49
(UTC+00:00)

A-11 Canister half - Pass Details

Date: 23 May 2025
Orbit: 1515 x 1684 km, 47.2° (Epoch: 14 June)

Event Time Altitude Azimuth Distance (km) Brightness Sun altitude
Rises 04:37:05 0° 192° (SSW) 4,834 11.3 -11.3°
Reaches altitude 10° 04:40:55 10° 180° (S) 3,824 10.7 -11.9°
Maximum altitude 04:48:24 26° 129° (SE) 2,728 9.7 -12.9°
Drops below altitude 10° 04:55:42 10° 78° (ENE) 3,734 10.7 -13.9°
Sets 04:59:21 0° 66° (ENE) 4,699 11.3 -14.4°
